Location: Bacharowice
(49.9333°N, 19.5833°E)
Time: 09:12:03
(UTC+00:00)

CZ-2C R/B - Pass Details

Date: 11 May 2021
Orbit: 640 x 703 km, 98.3° (Epoch: 21 June)

Event Time Altitude Azimuth Distance (km) Brightness Sun altitude
Rises 19:29:58 0° 16° (NNE) 2,972 7.5 -10.3°
Reaches altitude 10° 19:32:11 10° 19° (NNE) 2,063 6.6 -10.6°
Maximum altitude 19:36:39 67° 102° (ESE) 714 3.7 -11.1°
Drops below altitude 10° 19:41:10 10° 186° (S) 2,079 5.9 -11.6°
Enters shadow 19:42:32 - 188° (S) 2,636 6.4 -11.7°
